This is the latest recevied weather packets stored in our database for station/object DC4XK-10. If no packets are shown the sender has not sent any weather packets the latest 10 day(s).
| Time | Temp. | Humidity | Pressure | Rain* | Wind** | Luminosity | Snow |
|---|---|---|---|---|---|---|---|
| 1778041130 | 6.67° C | 79% | 1007.4 hPa | 0 mm | 0 m/s | - | - |
| 1778040531 | 6.67° C | 79% | 1007.6 hPa | 0 mm | 0 m/s | - | - |
| 1778039931 | 6.67° C | 78% | 1007.6 hPa | 0 mm | 0 m/s | - | - |
| 1778039330 | 6.11° C | 80% | 1007.6 hPa | 0 mm | 0 m/s | - | - |
| 1778038731 | 5.56° C | 84% | 1007.4 hPa | 0 mm | 0 m/s | - | - |
| 1778038130 | 5.56° C | 86% | 1007.7 hPa | 0 mm | 0 m/s | - | - |
| 1778037531 | 5.56° C | 88% | 1007.5 hPa | 0 mm | 0 m/s | - | - |
| 1778036932 | 5.56° C | 91% | 1007.7 hPa | 0 mm | 0 m/s | - | - |
| 1778036330 | 5.56° C | 94% | 1007.6 hPa | 0 mm | 0 m/s | - | - |
| 1778035731 | 5° C | 96% | 1007.7 hPa | 0 mm | 0 m/s | - | - |
| 1778034530 | 5.56° C | 98% | 1007.7 hPa | 0 mm | 0 m/s | - | - |
| 1778033930 | 5.56° C | 99% | 1007.9 hPa | 0 mm | 0 m/s | - | - |
| 1778033334 | 5.56° C | 99% | 1007.9 hPa | 0 mm | 0 m/s | - | - |
| 1778032731 | 5.56° C | 99% | 1008 hPa | 0 mm | 0 m/s | - | - |
| 1778032131 | 5.56° C | 99% | 1008.2 hPa | 0 mm | 0 m/s | - | - |
| 1778031533 | 5.56° C | 99% | 1008.2 hPa | 0 mm | 0 m/s | - | - |
| 1778030931 | 5° C | 99% | 1007.9 hPa | 0 mm | 0 m/s | - | - |
| 1778030330 | 5° C | 99% | 1008.2 hPa | 0 mm | 0 m/s | - | - |
| 1778029730 | 5.56° C | 99% | 1008.2 hPa | 0 mm | 0 m/s | - | - |
| 1778029131 | 5° C | 99% | 1008.3 hPa | 0 mm | 0 m/s | - | - |
| 1778028531 | 5° C | 98% | 1008.1 hPa | 0 mm | 0 m/s | - | - |
| 1778027931 | 4.44° C | 98% | 1008.1 hPa | 0 mm | 0 m/s | - | - |
| 1778027331 | 5° C | 98% | 1008.2 hPa | 0 mm | 0 m/s | - | - |
| 1778026731 | 5° C | 97% | 1008.1 hPa | 0 mm | 0 m/s | - | - |
| 1778026131 | 5.56° C | 97% | 1008.5 hPa | 0 mm | 0 m/s | - | - |
* Rain latest hour (hover to see other rain measurements)
** Current wind speed in m/s (hover to see current wind gust speed)